Wakefield, VA

10:57 PM EDT on July 25, 2017 (GMT -0400)
Wakefield Municipal

Weather History for KAKQ - November, 2011

Change the Weather History Date:

Friday, November 18, 2011

  Actual Average (KJGG) Record (KJGG)
Temperature  
Mean Temperature 38 °F -  
Max Temperature 48 °F 62 °F 76 °F (1953)
Min Temperature 28 °F 36 °F 22 °F (1959)
Degree Days  
Heating Degree Days 27    
Moisture  
Dew Point 24 °F    
Average Humidity 67    
Maximum Humidity 89    
Minimum Humidity 27    
Precipitation  
Precipitation 0.00 in - - ()
Sea Level Pressure  
Sea Level Pressure 30.46 in    
Wind  
Wind Speed 1 mph (NNE)    
Max Wind Speed 7 mph    
Max Gust Speed -    
Visibility 10 miles    
Events      
Averages and records for this station are not official NWS values.
T = Trace of Precipitation, MM = Missing Value Source: NWS Daily Summary

Daily Weather History Graph

Daily Weather History Graph

Search for Another Location

Airport or City:

Trip Planner

Search our weather history database for the weather conditions in past years. The results will help you decide how hot, cold, wet, or windy it might be!

Date:

Astronomy

Nov. 18, 2011 Rise Set
Actual Time 6:49 AM EST 4:56 PM EST
Civil Twilight 6:21 AM EST 5:24 PM EST
Nautical Twilight 5:49 AM EST 5:55 PM EST
Astronomical Twilight 5:19 AM EST 6:26 PM EST
Moon No Moon Rise 12:32 PM EST (11/18)
Length of Visible Light 11h 02m
Length of Day
10h 07m
Waning Gibbous, 49% of the Moon is Illuminated
Nov 18
Waning Gibbous
Nov 25
New
Dec 2
First Quarter
Dec 10
Full
Dec 17
Last Quarter

Hourly Weather History & Observations

Time (EST) Temp. Windchill Dew Point Humidity Pressure Visibility Wind Dir Wind Speed Gust Speed Precip Events Conditions
12:54 AM 33.1 °F - 28.9 °F 85% 30.31 in 10.0 mi Calm Calm - N/A   Clear
1:54 AM 32.0 °F - 28.0 °F 85% 30.32 in 10.0 mi Calm Calm - N/A   Clear
2:54 AM 30.0 °F - 27.0 °F 88% 30.34 in 9.0 mi Calm Calm - N/A   Clear
3:54 AM 30.0 °F - 26.1 °F 85% 30.36 in 10.0 mi Calm Calm - N/A   Clear
4:54 AM 30.9 °F - 25.0 °F 79% 30.40 in 10.0 mi Calm Calm - N/A   Clear
5:54 AM 30.9 °F - 25.0 °F 79% 30.43 in 10.0 mi Calm Calm - N/A   Clear
6:54 AM 28.9 °F - 25.0 °F 85% 30.45 in 10.0 mi Calm Calm - N/A   Clear
7:54 AM 34.0 °F - 27.0 °F 75% 30.49 in 10.0 mi Calm Calm - N/A   Clear
8:54 AM 37.9 °F 34.4 °F 25.0 °F 60% 30.52 in 10.0 mi NNE 4.6 mph - N/A   Clear
9:54 AM 41.0 °F 36.4 °F 23.0 °F 49% 30.52 in 10.0 mi NNE 6.9 mph - N/A   Clear
10:54 AM 44.1 °F - 19.0 °F 37% 30.52 in 10.0 mi Calm Calm - N/A   Clear
11:54 AM 45.0 °F 41.8 °F 16.0 °F 31% 30.51 in 10.0 mi Variable 5.8 mph - N/A   Clear
12:54 PM 46.0 °F 42.5 °F 15.1 °F 29% 30.49 in 10.0 mi Variable 6.9 mph - N/A   Clear
1:54 PM 48.0 °F - 16.0 °F 28% 30.47 in 10.0 mi Variable 3.5 mph - N/A   Clear
2:54 PM 46.9 °F - 15.1 °F 28% 30.47 in 10.0 mi North 4.6 mph - N/A   Clear
3:54 PM 46.9 °F - 14.0 °F 27% 30.47 in 10.0 mi Calm Calm - N/A   Clear
4:54 PM 39.0 °F - 30.0 °F 70% 30.48 in 10.0 mi Calm Calm - N/A   Clear
5:54 PM 33.1 °F - 27.0 °F 78% 30.48 in 10.0 mi Calm Calm - N/A   Clear
6:54 PM 30.9 °F - 26.1 °F 82% 30.50 in 10.0 mi Calm Calm - N/A   Clear
7:54 PM 30.0 °F - 26.1 °F 85% 30.51 in 10.0 mi Calm Calm - N/A   Clear
8:54 PM 30.0 °F - 26.1 °F 85% 30.51 in 10.0 mi Calm Calm - N/A   Clear
9:54 PM 28.9 °F - 26.1 °F 89% 30.51 in 10.0 mi Calm Calm - N/A   Clear
10:54 PM 28.9 °F - 26.1 °F 89% 30.50 in 10.0 mi Calm Calm - N/A   Clear
11:54 PM 28.9 °F - 24.1 °F 82% 30.50 in 10.0 mi Calm Calm - N/A   Clear